THOR ABLESTAR DEB, 956

Orbit data source: Space-Track

THOR ABLESTAR DEB, 956 is space debris in LEO originally from a launch on Sun, 13 Dec 1964 UTC launched from the Air Force Western Test Range (AFWTR). Debris objects in space refer to the collection of defunct objects orbiting the Earth. Examples of debris include non-operational satellites, rocket bodies, and fragments generated from explosions, collisions, or faulty payload assembly.

Loading next visibility...
Identifier
956, 1964-083B
Orbit
LEO
Country
Flag of USUS
Related business
Manufacturer
Unknown
Mission
Spacecraft
Bus & Motor
Unknown
Mass
Unknown
Launch date (UTC)
1964-12-13 (61 years ago)
Launch vehicle
Unknown
Launch site
Air Force Western Test Range (AFWTR)
Object type
Payload
Rocket body
Debris
Shape & HBR
Unknown shape, 0.1 m
Radar Cross Section
Small (<0.1 m²)

Expand to show TLE details & history
Last TLE update: 15 hours ago

TLE from 15 hours ago
0 THOR ABLESTAR DEB
1 00956U 64083B   25340.51459884  .00000483  00000-0  56126-3 0  9997
2 00956  89.9290 170.3139 0021865 232.9551 155.4538 13.67439878 29796
Epoch: 2025-12-06T12:21Z
TLE epoch observation values (Epoch: 2025-12-06T12:21:01.339Z)
Latitude
28.55446°
Longitude
-90.44448°
Altitude
1,027.08 km
Speed
7.333 km/s
True Right ascension
11h 21m 24s
True Declination
28° 24' 56"
Sunlit
Object was in daylight at epoch
Visualization orbit readout
Latitude
Unknown
Longitude
Unknown
Altitude
Unknown
Speed
Unknown
Apparent Right ascension
Unknown
Apparent Declination
Unknown
Sunlit
N/A
Visualization observer readout
Local Sidereal Time
01:40:31
Azimuth
Unknown
Elevation
Unknown
Doppler factor
Unknown
Orbital elements
Apogee altitude
1,021.946 km
Perigee altitude
989.656 km
Semi-major axis
7,383.938 km
Eccentricity
0.00219
Inclination
89.929°
RAAN
170.3139°
Arg. of periapsis
232.9551°
True anomaly
155.55763°
Mean anomaly
155.4538°
Eccentric anomaly
155.50574°
Mean motion
3.42067 °/min
Orbital period
105.24 mins
BSTAR
0.00056126
Loading maneuver chart data...
Computing Atmospheric mass density...

Documentation

Showing up to 5 results
|